Weather History for Spokane Fairchild, WA

Change the Weather History Date:

Thursday, February 20, 2014

  Actual Average Record
Temperature  
Mean Temperature 35 °F -  
Max Temperature 42 °F 39 °F 46 °F (1998)
Min Temperature 28 °F 24 °F 15 °F (2006)
Degree Days  
Heating Degree Days 30    
Moisture  
Dew Point 28 °F    
Average Humidity 81    
Maximum Humidity 100    
Minimum Humidity 50    
Precipitation  
Precipitation 0.05 in - - ()
Snow  
Snow 0.00 in - - ()
Snow Depth 1.00 in    
Sea Level Pressure  
Sea Level Pressure 29.95 in    
Wind  
Wind Speed 15 mph (SSW)    
Max Wind Speed 28 mph    
Max Gust Speed 36 mph    
Visibility 9 miles    
Events Snow    
Averages and records for this station are not official NWS values.
T = Trace of Precipitation, MM = Missing Value Source: NWS Daily Summary

Daily Weather History Graph

Daily Weather History Graph

Search for Another Location

Airport:

Trip Planner

Search our weather history database for the weather conditions in past years. The results will help you decide how hot, cold, wet, or windy it might be!

Date:

Astronomy

Feb. 20, 2014 Rise Set
Actual Time 6:47 AM PST 5:21 PM PST
Civil Twilight 6:16 AM PST 5:53 PM PST
Nautical Twilight 5:40 AM PST 6:29 PM PST
Astronomical Twilight 5:04 AM PST 7:04 PM PST
Moon 11:48 PM PST (2/20) 9:07 AM PST (2/20)
Length of Visible Light 11h 37m
Length of Day
10h 34m
Waning Gibbous, 70% of the Moon is Illuminated
Feb 20
Waning Gibbous
Feb 22
Last Quarter
Mar 1
New
Mar 8
First Quarter
Mar 16
Full

Hourly Weather History & Observations

Time (PST) Temp. Windchill Dew Point Humidity Pressure Visibility Wind Dir Wind Speed Gust Speed Precip Events Conditions
12:58 AM 28.4 °F 19.1 °F 24.3 °F 84% 30.11 in 10.0 mi SSW 10.4 mph - N/A   Clear
1:58 AM 29.1 °F 19.4 °F 26.8 °F 91% 30.10 in 10.0 mi South 11.5 mph - N/A   Partly Cloudy
2:17 AM 28.4 °F 17.5 °F 28.4 °F 100% 30.03 in 10.0 mi South 13.8 mph - N/A   Scattered Clouds
2:37 AM 30.2 °F 20.8 °F 28.4 °F 93% 30.01 in 10.0 mi South 11.5 mph - N/A   Mostly Cloudy
2:58 AM 30.4 °F 22.2 °F 28.6 °F 93% 30.07 in 10.0 mi South 9.2 mph - N/A   Overcast
3:20 AM 32.0 °F 23.0 °F 28.4 °F 87% 29.99 in 10.0 mi South 11.5 mph - N/A   Overcast
3:24 AM 32.0 °F 21.6 °F 28.4 °F 87% 29.99 in 10.0 mi South 15.0 mph - N/A   Overcast
3:26 AM 32.0 °F 21.2 °F 28.4 °F 87% 29.99 in 10.0 mi South 16.1 mph 21.9 mph N/A   Overcast
3:56 AM 32.0 °F 22.1 °F 28.4 °F 87% 29.99 in 9.0 mi South 13.8 mph - N/A   Overcast
3:58 AM 31.5 °F 21.4 °F 29.1 °F 91% 30.05 in 9.0 mi South 13.8 mph - 0.00 in   Overcast
4:18 AM 32.0 °F 22.1 °F 30.2 °F 93% 29.98 in 3.0 mi South 13.8 mph - N/A Snow Light Snow
4:22 AM 32.0 °F 22.5 °F 30.2 °F 93% 29.97 in 2.5 mi South 12.7 mph - N/A Snow Light Snow
4:24 AM 32.0 °F 22.5 °F 30.2 °F 93% 29.98 in 2.0 mi South 12.7 mph - N/A Snow Light Snow
4:38 AM 32.0 °F 22.5 °F 30.2 °F 93% 29.96 in 2.5 mi South 12.7 mph - N/A Snow Light Snow
4:52 AM 32.0 °F 23.0 °F 30.2 °F 93% 29.95 in 3.0 mi South 11.5 mph - N/A Snow Light Snow
4:58 AM 31.1 °F 20.5 °F 29.8 °F 95% 30.02 in 3.0 mi South 15.0 mph - 0.00 in Snow Light Snow
5:13 AM 32.0 °F 22.5 °F 30.2 °F 93% 29.95 in 5.0 mi South 12.7 mph - N/A Snow Light Snow
5:37 AM 32.0 °F 22.5 °F 30.2 °F 93% 29.94 in 2.5 mi South 12.7 mph - N/A Snow Light Snow
5:42 AM 32.0 °F 22.5 °F 30.2 °F 93% 29.94 in 2.5 mi South 12.7 mph - N/A Snow Light Snow
5:58 AM 30.9 °F 21.2 °F 29.7 °F 95% 29.99 in 2.5 mi South 12.7 mph - 0.00 in Snow Light Snow
6:02 AM 32.0 °F 22.5 °F 30.2 °F 93% 29.92 in 3.0 mi South 12.7 mph - N/A Snow Light Snow
6:17 AM 32.0 °F 21.6 °F 30.2 °F 93% 29.91 in 5.0 mi South 15.0 mph 19.6 mph N/A Snow Light Snow
6:37 AM 32.0 °F 22.5 °F 30.2 °F 93% 29.89 in 10.0 mi South 12.7 mph - N/A   Overcast
6:42 AM 32.0 °F 22.5 °F 30.2 °F 93% 29.89 in 10.0 mi South 12.7 mph - N/A   Overcast
6:52 AM 32.0 °F 21.6 °F 28.4 °F 87% 29.89 in 10.0 mi South 15.0 mph - N/A   Overcast
6:57 AM 32.0 °F 22.5 °F 28.4 °F 87% 29.88 in 10.0 mi South 12.7 mph - N/A   Overcast
6:58 AM 32.0 °F 22.1 °F 28.4 °F 87% 29.95 in 10.0 mi South 13.8 mph - 0.00 in   Overcast
7:08 AM 32.0 °F 23.6 °F 28.4 °F 87% 29.87 in 10.0 mi South 10.4 mph 20.7 mph N/A   Overcast
7:20 AM 32.0 °F 22.5 °F 28.4 °F 87% 29.87 in 10.0 mi SSW 12.7 mph - N/A   Overcast
7:58 AM 33.1 °F 21.5 °F 28.8 °F 84% 29.94 in 10.0 mi SSW 19.6 mph - 0.00 in Snow Light Snow
8:03 AM 32.0 °F 20.8 °F 28.4 °F 87% 29.87 in 9.0 mi SSW 17.3 mph 27.6 mph N/A Snow Light Snow
8:10 AM 32.0 °F 21.2 °F 28.4 °F 87% 29.87 in 10.0 mi SSW 16.1 mph 25.3 mph N/A Snow Light Snow
8:15 AM 32.0 °F 21.2 °F 28.4 °F 87% 29.87 in 10.0 mi SSW 16.1 mph 25.3 mph N/A Snow Light Snow
8:20 AM 32.0 °F 20.1 °F 28.4 °F 87% 29.88 in 10.0 mi SSW 19.6 mph 24.2 mph N/A Snow Light Snow
8:58 AM 33.4 °F 21.1 °F 29.5 °F 85% 29.93 in 10.0 mi SSW 23.0 mph 29.9 mph 0.00 in Snow Light Snow
9:58 AM 34.5 °F 22.3 °F 30.4 °F 85% 29.94 in 10.0 mi SW 24.2 mph 29.9 mph 0.00 in   Partly Cloudy
10:00 AM 33.8 °F 22.2 °F 32.0 °F 93% 29.87 in 10.0 mi SW 20.7 mph 29.9 mph N/A Snow Light Snow
10:58 AM 35.6 °F 24.2 °F 31.1 °F 84% 29.95 in 10.0 mi SW 21.9 mph - 0.00 in Snow Light Snow
11:58 AM 37.6 °F 25.6 °F 30.7 °F 76% 29.95 in 10.0 mi SW 27.6 mph 34.5 mph 0.00 in Snow Light Snow
12:26 PM 37.4 °F 25.9 °F 32.0 °F 81% 29.89 in 10.0 mi SW 25.3 mph 33.4 mph N/A   Partly Cloudy
12:34 PM 37.4 °F 25.9 °F 30.2 °F 75% 29.89 in 10.0 mi SW 25.3 mph 33.4 mph N/A Snow Light Snow
12:57 PM 39.2 °F 29.0 °F 32.0 °F 75% 29.89 in 10.0 mi SW 21.9 mph 35.7 mph N/A   Clear
12:58 PM 39.2 °F 28.5 °F 32.0 °F 75% 29.96 in 10.0 mi SW 24.2 mph 34.5 mph 0.00 in   Clear
1:58 PM 42.3 °F 31.9 °F 30.7 °F 64% 29.95 in 10.0 mi WSW 27.6 mph 35.7 mph N/A   Partly Cloudy
2:58 PM 42.8 °F 32.9 °F 27.7 °F 55% 29.95 in 10.0 mi WSW 26.5 mph 35.7 mph N/A   Mostly Cloudy
3:58 PM 41.0 °F 30.7 °F 23.5 °F 50% 29.96 in 10.0 mi WSW 25.3 mph 34.5 mph N/A   Clear
4:58 PM 37.6 °F 27.4 °F 24.4 °F 59% 29.97 in 10.0 mi WSW 19.6 mph 26.5 mph 0.00 in Snow Light Snow
5:33 PM 35.6 °F 25.9 °F 24.8 °F 65% 29.92 in 10.0 mi WSW 16.1 mph - N/A   Clear
5:58 PM 35.8 °F 25.7 °F 24.1 °F 62% 29.99 in 10.0 mi WSW 17.3 mph - 0.00 in Snow Light Snow
6:17 PM 35.6 °F 24.5 °F 24.8 °F 65% 29.93 in 10.0 mi WSW 20.7 mph - N/A   Clear
6:53 PM 33.8 °F 23.9 °F 24.8 °F 70% 29.94 in 10.0 mi SW 15.0 mph - N/A   Clear
6:58 PM 34.3 °F 23.9 °F 24.1 °F 66% 30.01 in 10.0 mi SW 17.3 mph - 0.00 in   Clear
6:59 PM 33.8 °F 23.5 °F 24.8 °F 70% 29.94 in 10.0 mi WSW 16.1 mph - N/A   Clear
7:05 PM 33.8 °F 23.5 °F 23.0 °F 65% 29.94 in 10.0 mi WSW 16.1 mph - N/A   Clear
7:14 PM 33.8 °F 23.2 °F 24.8 °F 70% 29.94 in 10.0 mi WSW 17.3 mph - N/A   Clear
7:58 PM 33.8 °F 25.3 °F 23.7 °F 67% 30.01 in 10.0 mi WSW 11.5 mph - 0.00 in   Clear
8:27 PM 33.8 °F 25.3 °F 23.0 °F 65% 29.94 in 10.0 mi SW 11.5 mph - N/A   Clear
8:37 PM 32.0 °F 23.0 °F 24.8 °F 75% 29.94 in 10.0 mi SW 11.5 mph - N/A   Clear
8:58 PM 32.7 °F 23.0 °F 24.3 °F 71% 30.01 in 10.0 mi SW 13.8 mph - 0.00 in   Clear
9:10 PM 32.0 °F 21.6 °F 24.8 °F 75% 29.94 in 10.0 mi SW 15.0 mph - N/A   Clear
9:19 PM 32.0 °F 22.5 °F 24.8 °F 75% 29.94 in 10.0 mi SW 12.7 mph - N/A   Clear
9:58 PM 33.1 °F 24.4 °F 24.4 °F 71% 30.01 in 10.0 mi SW 11.5 mph - 0.00 in   Clear
10:44 PM 32.0 °F 23.6 °F 24.8 °F 75% 29.94 in 10.0 mi SW 10.4 mph - N/A   Clear
10:58 PM 31.3 °F 20.3 °F 25.5 °F 79% 30.01 in 10.0 mi SW 16.1 mph - 0.00 in   Clear
11:16 PM 32.0 °F 21.2 °F 26.6 °F 80% 29.94 in 10.0 mi SW 16.1 mph - N/A   Clear
11:18 PM 32.0 °F 21.6 °F 26.6 °F 80% 29.94 in 10.0 mi SW 15.0 mph - N/A   Clear
11:34 PM 32.0 °F 21.2 °F 26.6 °F 80% 29.94 in 10.0 mi SW 16.1 mph - N/A   Clear
11:35 PM 32.0 °F 21.2 °F 26.6 °F 80% 29.94 in 10.0 mi SW 16.1 mph - N/A   Clear
11:55 PM 32.0 °F 21.2 °F 26.6 °F 80% 29.94 in 10.0 mi SW 16.1 mph - N/A   Clear
11:58 PM 32.0 °F 21.6 °F 26.6 °F 80% 30.00 in 10.0 mi SW 15.0 mph - 0.00 in   Clear